Pt. Reyes RCA field Weather observations

Data are for 10 minute period ending at time listed.
 Day   Time   Solar   Ave.   Ave.  Ave.  Vector    Max.   Stn.   Total 
  of    of     Rad.   Air    Rel.  Wind   Wind     Wind   Baro. Precip.
Year   Day            Temp.  Hum.  Speed  Dir.     Gust   Pres.        
2014   (PST)   W/m2    F      %     mph   deg.      mph    mb.    in.  
-----------------------------------------------------------------------
 292   14:30  446.0    66   76.7     7    248.4    10.6   1008.5  0.00  
 292   14:40  423.0    66   77.0     9    255.3    12.5   1008.5  0.00  
 292   14:50  402.0    66   77.4     8    260.6    11.3   1008.5  0.00  
 292   15:00  377.0    66   77.3     7    247.1    10.1   1008.5  0.00  
 292   15:10  353.0    66   77.1     7    258.1    10.0   1008.5  0.00  
 292   15:20  328.0    65   77.9     8    274.8    10.4   1008.5  0.00  
 292   15:30  303.0    65   78.3     6    262.4     9.0   1008.5  0.00  
 292   15:40  277.0    66   77.0     6    257.8     9.5   1008.5  0.00  
 292   15:50  252.0    66   76.9     6    256.0     8.1   1008.5  0.00  
 292   16:00  210.0    65   77.7     6    268.1     8.8   1008.5  0.00  
 292   16:10  201.0    65   78.1     6    277.5     8.3   1008.1  0.00  
 292   16:20  169.0    66   77.3     5    285.4     7.4   1008.1  0.00  
 292   16:30  107.0    65   78.1     5    284.7     8.0   1008.1  0.00  
 292   16:40  114.0    65   78.4     5    288.3     6.6   1008.1  0.00  
 292   16:50   42.0    64   80.4     3    295.2     5.5   1008.1  0.00  
 292   17:00   57.0    64   81.8     2    295.9     3.2   1008.1  0.00  
 292   17:10   46.0    64   79.8     2    261.7     4.5   1008.1  0.00  
 292   17:20   16.0    64   81.0     1    338.9     2.6   1008.1  0.00  
 292   17:30    6.0    63   82.4     1    264.6     2.1   1008.1  0.00  
 292   17:40    1.0    62   85.3     2    235.7     2.6   1008.1  0.00  
 292   17:50    0.0    61   86.9     2    235.5     2.7   1008.1  0.00  
 292   18:00    0.0    60   88.5     1    229.3     2.1   1008.1  0.00  
 292   18:10    0.0    59   90.1     1    192.4     1.6   1008.1  0.00  
 292   18:20    0.0    58   90.7     3    151.2     3.3   1008.1  0.00  
 292   18:30    0.0    58   91.9     3    168.8     3.4   1008.1  0.00  
 292   18:40    0.0    58   91.8     3    170.6     3.4   1008.5  0.00  
 292   18:50    0.0    57   91.4     3    174.7     3.5   1008.5  0.00  
 292   19:00    0.0    57   92.4     3    189.1     3.9   1008.5  0.00  
 292   19:10    0.0    56   93.0     4    211.2     4.3   1008.5  0.00  
 292   19:20    0.0    56   93.6     3    227.1     4.1   1008.5  0.00  
 292   19:30    0.0    57   94.1     2    237.6     3.2   1008.5  0.00  
 292   19:40    0.0    58   94.5     3    226.2     5.5   1008.5  0.00  
 292   19:50    0.0    60   94.8     5    227.2     6.5   1008.5  0.00  
 292   20:00    0.0    60   94.4     4    217.0     5.3   1008.8  0.00  
 292   20:10    0.0    60   94.3     3    200.8     4.2   1008.8  0.00  
 292   20:20    0.0    60   94.3     4    205.1     4.8   1008.8  0.00  
 292   20:30    0.0    61   94.4     5    193.5     6.8   1008.8  0.00  
 292   20:40    0.0    61   94.2     4    188.0     6.1   1008.8  0.00  
 292   20:50    0.0    61   94.0     4    187.0     5.9   1008.8  0.00  
 292   21:00    0.0    61   93.6     3    178.9     4.7   1008.8  0.00  
 292   21:10    0.0    61   93.3     2    179.6     2.9   1008.8  0.00  
 292   21:20    0.0    61   93.0     3    197.7     3.2   1008.8  0.00  
 292   21:30    0.0    61   92.8     2    170.7     3.2   1009.1  0.00  
 292   21:40    0.0    61   93.0     2    160.8     3.7   1008.8  0.00  
 292   21:50    0.0    61   93.1     4    151.4     4.8   1008.8  0.00  
 292   22:00    0.0    60   93.4     4    156.0     6.1   1009.1  0.00  
 292   22:10    0.0    60   94.1     6    152.7     7.4   1009.1  0.00  
 292   22:20    0.0    60   94.8     7    143.2     8.3   1008.8  0.00  
 292   22:30    0.0    60   95.0     7    132.5     8.1   1008.8  0.00  
 292   22:40    0.0    59   95.2     6    129.8     7.5   1009.1  0.00  
 292   22:50    0.0    59   95.5     6    127.3     6.4   1009.1  0.00  
 292   23:00    0.0    59   95.8     6    126.4     7.0   1009.1  0.00  
 292   23:10    0.0    58   95.7     5    132.9     6.9   1009.1  0.00  
 292   23:20    0.0    58   96.1     7    140.1     9.6   1008.8  0.00  
 292   23:30    0.0    59   96.6     8    135.9    10.2   1008.8  0.00  
 292   23:40    0.0    60   96.5     8    144.4    10.3   1009.1  0.00  
 292   23:50    0.0    60   96.6     7    152.4     9.4   1009.1  0.00  
 293    0:00    0.0    60   96.6     6    146.6     8.0   1009.1  0.00  
 293    0:10    0.0    60   96.5     7    159.6     9.0   1009.5  0.00  
 293    0:20    0.0    60   96.5     6    154.0     8.8   1009.5  0.00  
 293    0:30    0.0    61   96.5     8    146.2    11.5   1009.1  0.00  
 293    0:40    0.0    61   96.3     9    146.5    10.5   1009.1  0.00  
 293    0:50    0.0    61   96.0     7    145.0     9.1   1009.1  0.00  
 293    1:00    0.0    61   95.9     8    147.0    10.2   1009.1  0.00  
 293    1:10    0.0    61   96.0     8    141.5    10.0   1009.1  0.00  
 293    1:20    0.0    61   95.9     8    147.6     9.7   1009.1  0.00  
 293    1:30    0.0    61   95.9     7    145.2     9.1   1009.5  0.00  
 293    1:40    0.0    61   95.8     6    134.3     8.3   1009.1  0.00  
 293    1:50    0.0    61   95.8     6    135.9     8.4   1009.1  0.00  
 293    2:00    0.0    61   95.7     7    139.7     8.6   1009.1  0.00  
 293    2:10    0.0    61   95.5     8    141.0    10.4   1009.1  0.00  
 293    2:20    0.0    61   95.3     8    141.7    10.3   1009.1  0.00  
 293    2:30    0.0    61   95.2     7    146.0     9.0   1008.8  0.00  
 293    2:40    0.0    61   95.3     8    136.1    10.4   1008.8  0.00  
 293    2:50    0.0    61   95.4     7    143.4    10.5   1008.8  0.00  
 293    3:00    0.0    61   95.4     9    139.5    12.7   1008.8  0.00  
 293    3:10    0.0    60   95.4     9    143.2    11.5   1008.8  0.00  
 293    3:20    0.0    60   95.5    10    139.0    12.9   1008.8  0.00  
 293    3:30    0.0    60   95.8    12    137.3    15.6   1008.8  0.00  
 293    3:40    0.0    60   96.1    11    133.7    14.3   1008.5  0.00  
 293    3:50    0.0    60   96.4    12    139.6    15.8   1008.5  0.00  
 293    4:00    0.0    60   96.6    12    136.1    15.9   1008.5  0.00  
 293    4:10    0.0    60   96.7    11    138.5    13.5   1008.5  0.00  
 293    4:20    0.0    60   96.7    12    141.5    15.9   1008.5  0.00  
 293    4:30    0.0    60   96.7    13    138.0    19.0   1008.5  0.00  
 293    4:40    0.0    60   96.6    12    140.7    15.6   1008.5  0.00  
 293    4:50    0.0    60   96.4    14    138.3    18.3   1008.5  0.00  
 293    5:00    0.0    60   96.2    12    146.7    15.6   1008.5  0.00  
 293    5:10    0.0    60   96.0    12    145.4    16.5   1008.8  0.00  
 293    5:20    0.0    60   95.8    13    142.4    15.7   1008.8  0.00  
 293    5:30    0.0    60   95.5    14    144.0    18.4   1008.5  0.00  
 293    5:40    0.0    60   95.2    14    143.4    18.3   1008.8  0.00  
 293    5:50    0.0    61   94.9    14    140.8    19.4   1008.8  0.00  
 293    6:00    0.0    61   94.9    14    145.7    18.6   1008.5  0.00  
 293    6:10    0.0    60   95.2    13    146.8    17.8   1008.8  0.00  
 293    6:20    0.0    60   95.6    12    158.4    16.2   1008.8  0.04  
 293    6:30    1.0    60   96.1    10    184.9    12.9   1009.1  0.01  
 293    6:40    4.0    60   96.0     8    271.3    16.3   1009.1  0.01  
 293    6:50   16.0    60   95.6     9    299.4    12.1   1009.5  0.00  
 293    7:00   12.0    60   95.3     7    298.0     9.8   1009.8  0.00  
 293    7:10   10.0    60   95.3     7    298.1     8.8   1009.8  0.00  
 293    7:20   12.0    59   95.5     7    311.5    12.1   1010.2  0.01  
 293    7:30   27.0    59   95.7     8    314.2    11.2   1010.5  0.01  
 293    7:40   42.0    59   96.1    10    311.7    12.9   1010.5  0.00  
 293    7:50   41.0    59   96.2    10    306.7    13.4   1010.5  0.01  
 293    8:00   60.0    59   96.2     7    319.0    11.4   1010.8  0.00  
 293    8:10   95.0    59   96.1     4    323.5     5.9   1010.8  0.00  
 293    8:20   95.0    60   95.5     3    309.8     4.8   1010.8  0.00  
 293    8:30   66.0    60   95.0     2    294.4     3.0   1010.8  0.00  
 293    8:40   81.0    60   94.7     2    318.5     3.0   1011.2  0.00  
 293    8:50  131.0    60   94.7     2    338.4     3.9   1011.2  0.00  
 293    9:00  199.0    61   94.4     2    293.0     5.1   1011.2  0.00  
 293    9:10  171.0    61   93.2     4    302.6     6.1   1011.2  0.00  
 293    9:20  185.0    61   91.2     4    301.9     5.9   1011.2  0.00  
 293    9:30  203.0    62   89.8     3    317.7     5.3   1011.2  0.00  
 293    9:40  166.0    62   88.4     2    304.5     5.4   1011.5  0.00  
 293    9:50  157.0    62   87.8     3    271.6     4.9   1011.5  0.00  
 293   10:00  190.0    62   88.2     4    256.2     5.0   1011.5  0.00  
 293   10:10  224.0    62   87.9     4    251.2     6.3   1011.5  0.00  
 293   10:20  302.0    62   87.0     4    249.0     6.1   1011.5  0.00  
 293   10:30  303.0    62   82.8     3    280.4     5.9   1011.5  0.00  
 293   10:40  251.0    63   81.3     4    256.5     5.8   1011.5  0.00  
 293   10:50  268.0    63   78.7     4    261.4     6.2   1011.5  0.00  
 293   11:00  261.0    63   79.0     4    246.1     5.6   1011.5  0.00  
 293   11:10  323.0    63   77.2     4    244.3     6.6   1011.5  0.00  
 293   11:20  359.0    64   77.3     5    243.8     6.7   1011.5  0.00  
 293   11:30  352.0    64   77.4     5    242.4     7.0   1011.5  0.00  
 293   11:40  328.0    64   76.1     5    235.7     8.6   1011.5  0.00  
 293   11:50  350.0    64   76.3     6    241.6     8.4   1011.5  0.00  
 293   12:00  337.0    64   76.8     6    235.0     8.7   1011.5  0.00  
 293   12:10  356.0    64   75.9     7    230.8     9.4   1011.5  0.00  
 293   12:20  437.0    64   77.0     8    229.0    10.2   1011.5  0.00  
 293   12:30  577.0    66   76.6     8    227.6    12.0   1011.5  0.00  
 293   12:40  604.0    66   76.7     9    226.1    12.2   1011.2  0.00  
 293   12:50  592.0    66   76.2     9    234.6    12.9   1011.2  0.00  
 293   13:00  584.0    66   76.2    10    240.4    13.7   1011.2  0.00  
 293   13:10  578.0    66   75.5    10    223.9    14.2   1011.2  0.00  
 293   13:20  564.0    66   75.6    11    222.3    14.5   1011.2  0.00  
 293   13:30  549.0    67   75.5    11    226.5    14.6   1011.2  0.00  
 293   13:40  536.0    66   76.8    12    224.7    15.1   1011.2  0.00  
 293   13:50  526.0    66   76.4    11    226.8    16.3   1011.2  0.00  
 293   14:00  495.0    66   76.0    12    226.9    16.4   1011.2  0.00  
 293   14:10  484.0    66   77.2    13    224.8    16.0   1011.5  0.00  
 293   14:20  464.0    66   77.3    12    228.5    16.5   1011.5  0.00  

Return to Pt. Reyes graphs page.


Western Regional Climate Center,wrcc@dri.edu